Notices

What's New in latest Release from April 7th, 2021:

- Updated Glossary, including Speed of Maximum Gust, and Total Hourly Precipitation

- Updated national and regional climate services offices contacts and prices information

- Addition of station inventory lists for 1981-2010, 1971-2000, and 1961-1990 Normals.

If you haven't already, please take our survey and provide feedback about our website: https://eccc.sondage-survey.ca/f/LanguageSelection.aspx?s=442ca660-fcf1-47c0-95a9-59707d6fd709

Hourly Data Report for September 30, 2019

TORONTO CITY
ONTARIO
Current Station Operator: ECCC - MSC

43°40'00.000" N
79°24'00.000" W
112.50 m
6158355
71508
XTO

Download Data

Hourly Data (September 2019)
Hourly Data Report for September 30, 2019
TIME
LST
Temp Definition
°C
Dew Point Definition
°C
Rel Hum Definition
%
Precip. Amount Definition
mm

Wind Dir Definition
10's deg

Wind Spd Definition
km/h
Visibility Definition
km
Stn Press Definition
kPa
Hmdx Definition


Wind Chill Definition


Weather Definition


00:00 14.5 6.4 58 0.0       101.33     LegendNANA
01:00 14.4 7.1 61 0.0       101.27     LegendNANA
02:00 14.4 7.8 64 0.0       101.24     LegendNANA
03:00 13.4 7.1 66 0.0       101.17     LegendNANA
04:00 13.0 6.8 66 0.0       101.13     LegendNANA
05:00 13.2 7.9 71 0.0       101.08     LegendNANA
06:00 13.9 9.0 72 0.0       101.05     LegendNANA
07:00 12.6 6.1 65 0.0       101.13     LegendNANA
08:00 12.5 6.1 65 0.0       101.07     LegendNANA
09:00 13.3 6.9 65 0.0       101.04     LegendNANA
10:00 14.3 8.6 68 0.0       100.96     LegendNANA
11:00 14.8 9.6 71 0.0       100.95     LegendNANA
12:00 15.2 10.5 73 0.0       100.88     LegendNANA
13:00 16.3 11.2 72 0.0       100.74     LegendNANA
14:00 16.0 11.4 74 0.0       100.72     LegendNANA
15:00 16.4 11.3 72 0.0       100.65     LegendNANA
16:00 16.4 11.4 72 0.0       100.53     LegendNANA
17:00 16.2 11.9 76 0.0       100.53     LegendNANA
18:00 15.9 12.1 78 0.0       100.54     LegendNANA
19:00 15.9 12.4 80 0.0       100.47     LegendNANA
20:00 16.2 12.9 81 0.0       100.41     LegendNANA
21:00 16.3 13.1 81 0.0       100.35     LegendNANA
22:00 16.7 13.6 82 0.0       100.32     LegendNANA
23:00 16.1 13.5 84 0.0       100.25     LegendNANA

Notes on Data Quality.

Legend

  • E = Estimated
  • M = Missing
  • NA = Not Available*
  • [empty] = Indicates an unobserved value
Date modified: